Location: Sternwarte ZA, Rosenfeld-Brittheim
(48.2889°N, 8.6789°E)
Time: 05:06:35
(UTC+02:00)

X-37B - Pass Details

Date: 27 September 2021
Orbit: 385 x 389 km, 45.0° (Epoch: 17 October)

Event Time Altitude Azimuth Distance (km) Brightness Sun altitude
Exits shadow 05:21:50 36° 151° (SSE) 627 1.6 -19.9°
Drops below altitude 10° 05:24:29 10° 99° (E) 1,415 4.3 -19.5°
Sets 05:26:37 0° 91° (E) 2,271 5.7 -19.2°
